Weather History for KBMT - December, 2013

Change the Weather History Date:

Saturday, December 28, 2013

  Actual Average (KBPT) Record (KBPT)
Temperature  
Mean Temperature 50 °F 53 °F  
Max Temperature 55 °F 62 °F 79 °F (1981)
Min Temperature 42 °F 43 °F 23 °F (1925)
Degree Days  
Heating Degree Days 16 13  
Month to date heating degree days 317  
Since 1 July heating degree days 512  
Cooling Degree Days 0 1  
Month to date cooling degree days 28  
Year to date cooling degree days 2883  
Moisture  
Dew Point 37 °F    
Average Humidity 64    
Maximum Humidity 100    
Minimum Humidity 49    
Precipitation  
Precipitation 0.00 in 0.18 in 2.63 in (1927)
Month to date precipitation 4.76  
Year to date precipitation 59.94  
Snow  
Snow 0.00 in 0.00 in T in (1939)
Month to date snowfall 0.0  
Since 1 July snowfall 0.0  
Snow Depth -    
Sea Level Pressure  
Sea Level Pressure 30.17 in    
Wind  
Wind Speed 3 mph (NNE)    
Max Wind Speed 7 mph    
Max Gust Speed -    
Visibility 10 miles    
Events      
T = Trace of Precipitation, MM = Missing Value Source: NWS Daily Summary

Daily Weather History Graph

Daily Weather History Graph

Search for Another Location

Airport or City:

Trip Planner

Search our weather history database for the weather conditions in past years. The results will help you decide how hot, cold, wet, or windy it might be!

Date:

Astronomy

Dec. 28, 2013 Rise Set
Actual Time 7:11 AM CST 5:25 PM CST
Civil Twilight 6:45 AM CST 5:51 PM CST
Nautical Twilight 6:15 AM CST 6:21 PM CST
Astronomical Twilight 5:46 AM CST 6:50 PM CST
Moon 2:59 AM CST (12/28) 2:08 PM CST (12/28)
Length of Visible Light 11h 06m
Length of Day
10h 13m
Waning Crescent, 19% of the Moon is Illuminated
Dec 28
Waning Crescent
Jan 1
New
Jan 7
First Quarter
Jan 15
Full
Jan 23
Last Quarter

Hourly Weather History & Observations

Time (CST) Temp. Windchill Dew Point Humidity Pressure Visibility Wind Dir Wind Speed Gust Speed Precip Events Conditions
12:15 AM 47.5 °F - 35.1 °F 62% 30.31 in 10.0 mi NNE 5.8 mph - N/A   Clear
12:35 AM 47.5 °F - 34.5 °F 61% 30.30 in 10.0 mi NNE 5.8 mph - N/A   Clear
12:55 AM 47.3 °F - 34.3 °F 61% 30.31 in 10.0 mi NNE 3.5 mph - N/A   Clear
1:15 AM 46.4 °F 44.3 °F 34.9 °F 64% 30.29 in 10.0 mi NNE 4.6 mph - N/A   Clear
1:35 AM 46.6 °F - 34.7 °F 63% 30.30 in 10.0 mi NNW 4.6 mph - N/A   Clear
1:55 AM 45.3 °F 43.0 °F 35.2 °F 68% 30.28 in 10.0 mi NNE 4.6 mph - N/A   Clear
2:15 AM 46.4 °F 45.2 °F 34.7 °F 64% 30.28 in 10.0 mi NE 3.5 mph - N/A   Clear
2:35 AM 46.0 °F 43.9 °F 34.7 °F 65% 30.27 in 10.0 mi NNE 4.6 mph - N/A   Clear
2:55 AM 45.9 °F 43.6 °F 34.9 °F 66% 30.27 in 10.0 mi North 4.6 mph - N/A   Clear
3:15 AM 45.9 °F 44.6 °F 35.1 °F 66% 30.27 in 10.0 mi NNE 3.5 mph - N/A   Clear
3:35 AM 45.5 °F - 35.2 °F 67% 30.27 in 10.0 mi Calm Calm - N/A   Clear
3:55 AM 45.5 °F 44.2 °F 36.0 °F 69% 30.26 in 10.0 mi NNE 3.5 mph - N/A   Clear
4:15 AM 45.5 °F 44.2 °F 35.6 °F 68% 30.26 in 10.0 mi North 3.5 mph - N/A   Scattered Clouds
4:35 AM 45.5 °F 44.2 °F 35.8 °F 69% 30.26 in 10.0 mi North 3.5 mph - N/A   Scattered Clouds
4:55 AM 45.5 °F 42.5 °F 35.2 °F 67% 30.24 in 10.0 mi NNE 5.8 mph - N/A   Scattered Clouds
5:15 AM 45.5 °F 43.2 °F 34.9 °F 66% 30.24 in 10.0 mi NNE 4.6 mph - N/A   Clear
5:35 AM 45.9 °F 43.6 °F 34.7 °F 65% 30.23 in 10.0 mi NNE 4.6 mph - N/A   Clear
5:55 AM 45.9 °F - 34.3 °F 64% 30.24 in 10.0 mi Calm Calm - N/A   Clear
6:15 AM 46.4 °F 44.3 °F 33.8 °F 62% 30.23 in 10.0 mi NE 4.6 mph - N/A   Clear
6:35 AM 45.9 °F 43.6 °F 34.3 °F 64% 30.24 in 10.0 mi North 4.6 mph - N/A   Clear
6:55 AM 44.6 °F 43.1 °F 36.7 °F 74% 30.23 in 10.0 mi North 3.5 mph - N/A   Clear
7:15 AM 45.5 °F 43.2 °F 34.2 °F 65% 30.23 in 10.0 mi NNE 4.6 mph - N/A   Scattered Clouds
7:35 AM 44.8 °F 43.3 °F 35.6 °F 70% 30.23 in 10.0 mi North 3.5 mph - N/A   Scattered Clouds
7:55 AM 44.2 °F - 37.4 °F 77% 30.24 in 10.0 mi Calm Calm - N/A   Scattered Clouds
8:15 AM 45.3 °F 44.0 °F 37.2 °F 73% 30.23 in 10.0 mi NNE 3.5 mph - N/A   Overcast
8:35 AM 46.8 °F - 35.6 °F 65% 30.24 in 10.0 mi North 3.5 mph - N/A   Overcast
8:55 AM 46.9 °F - 35.4 °F 64% 30.22 in 10.0 mi NNE 6.9 mph - N/A   Overcast
9:15 AM 47.8 °F - 34.9 °F 61% 30.25 in 10.0 mi NNE 3.5 mph - N/A   Overcast
9:35 AM 48.4 °F - 34.5 °F 59% 30.25 in 10.0 mi NNE 4.6 mph - N/A   Overcast
9:55 AM 49.1 °F - 34.9 °F 58% 30.24 in 10.0 mi NE 5.8 mph - N/A   Scattered Clouds
10:15 AM 49.5 °F - 34.3 °F 56% 30.24 in 10.0 mi NE 3.5 mph - N/A   Clear
10:35 AM 50.4 °F - 34.9 °F 55% 30.23 in 10.0 mi NE 3.5 mph - N/A   Clear
10:55 AM 50.9 °F - 35.2 °F 55% 30.23 in 10.0 mi Calm Calm - N/A   Clear
11:15 AM 50.7 °F - 35.4 °F 56% 30.22 in 10.0 mi Calm Calm - N/A   Clear
11:35 AM 51.1 °F - 35.8 °F 56% 30.22 in 10.0 mi Calm Calm - N/A   Clear
11:55 AM 51.4 °F - 36.5 °F 57% 30.19 in 10.0 mi NNE 3.5 mph - N/A   Clear
12:15 PM 51.6 °F - 35.8 °F 55% 30.18 in 10.0 mi Calm Calm - N/A   Scattered Clouds
12:35 PM 51.6 °F - 36.1 °F 56% 30.17 in 10.0 mi Calm Calm - N/A   Clear
12:55 PM 52.7 °F - 37.2 °F 56% 30.15 in 10.0 mi Calm Calm - N/A   Clear
1:15 PM 52.9 °F - 36.5 °F 54% 30.14 in 10.0 mi Calm Calm - N/A   Clear
1:35 PM 53.1 °F - 36.3 °F 53% 30.12 in 10.0 mi NNW 3.5 mph - N/A   Clear
1:55 PM 53.1 °F - 36.3 °F 53% 30.11 in 10.0 mi Calm Calm - N/A   Clear
2:15 PM 54.3 °F - 37.0 °F 52% 30.09 in 10.0 mi NNE 3.5 mph - N/A   Clear
2:35 PM 55.8 °F - 37.0 °F 49% 30.10 in 10.0 mi North 4.6 mph - N/A   Clear
2:55 PM 55.2 °F - 37.2 °F 51% 30.10 in 10.0 mi NW 3.5 mph - N/A   Clear
3:15 PM 54.1 °F - 37.0 °F 52% 30.10 in 10.0 mi NNW 4.6 mph - N/A   Clear
3:35 PM 54.1 °F - 36.5 °F 51% 30.09 in 10.0 mi Calm Calm - N/A   Clear
3:55 PM 54.5 °F - 36.7 °F 51% 30.08 in 10.0 mi NW 3.5 mph - N/A   Clear
4:15 PM 54.0 °F - 36.7 °F 52% 30.08 in 10.0 mi NW 3.5 mph - N/A   Clear
4:35 PM 53.4 °F - 38.8 °F 58% 30.08 in 10.0 mi Calm Calm - N/A   Clear
4:55 PM 52.7 °F - 39.0 °F 60% 30.08 in 10.0 mi Calm Calm - N/A   Clear
5:15 PM 52.5 °F - 39.2 °F 61% 30.05 in 10.0 mi NNW 3.5 mph - N/A   Clear
5:35 PM 50.5 °F - 40.1 °F 67% 30.06 in 10.0 mi NNW 3.5 mph - N/A   Clear
5:55 PM 50.0 °F - 40.5 °F 70% 30.07 in 10.0 mi Calm Calm - N/A   Clear
6:15 PM 48.7 °F - 40.5 °F 73% 30.06 in 10.0 mi Calm Calm - N/A   Clear
6:35 PM 47.5 °F - 41.2 °F 79% 30.06 in 10.0 mi Calm Calm - N/A   Clear
6:55 PM 46.9 °F - 41.0 °F 80% 30.08 in 10.0 mi Calm Calm - N/A   Clear
7:15 PM 46.2 °F - 41.2 °F 83% 30.08 in 10.0 mi Calm Calm - N/A   Clear
7:35 PM 45.7 °F - 41.2 °F 84% 30.07 in 10.0 mi Calm Calm - N/A   Clear
7:55 PM 44.2 °F - 40.1 °F 85% 30.07 in 10.0 mi Calm Calm - N/A   Clear
8:15 PM 42.6 °F - 42.6 °F 100% 30.06 in 10.0 mi Calm Calm - N/A   Clear
8:35 PM - - - N/A% 30.06 in 10.0 mi Calm Calm - N/A   Scattered Clouds
8:55 PM - - - N/A% 30.06 in 10.0 mi Calm Calm - N/A   Mostly Cloudy
9:15 PM - - - N/A% 30.06 in 10.0 mi Calm Calm - N/A   Overcast
9:35 PM - - - N/A% 30.06 in 10.0 mi Calm Calm - N/A   Mostly Cloudy
9:55 PM - - - N/A% 30.06 in 10.0 mi Calm Calm - N/A   Mostly Cloudy
10:15 PM - - - N/A% 30.06 in 10.0 mi Calm Calm - N/A   Scattered Clouds
10:35 PM - - - N/A% 30.05 in 10.0 mi Calm Calm - N/A   Clear
10:55 PM - - - N/A% 30.06 in 10.0 mi Calm Calm - N/A   Clear
11:15 PM - - - N/A% 30.05 in 10.0 mi Calm Calm - N/A   Clear
11:35 PM - - - N/A% 30.06 in 10.0 mi Calm Calm - N/A   Clear
11:55 PM - - - N/A% 30.05 in 10.0 mi Calm Calm - N/A   Clear